Weather History for KBAF - February, 2013

Change the Weather History Date:

Thursday, February 21, 2013

  Actual Average Record
Temperature  
Mean Temperature 25 °F -  
Max Temperature 27 °F 35 °F 60 °F (2002)
Min Temperature 23 °F 17 °F -13 °F (2015)
Degree Days  
Heating Degree Days 40    
Moisture  
Dew Point 11 °F    
Average Humidity 55    
Maximum Humidity 69    
Minimum Humidity 49    
Precipitation  
Precipitation 0.00 in - - ()
Sea Level Pressure  
Sea Level Pressure 29.99 in    
Wind  
Wind Speed 12 mph (NW)    
Max Wind Speed 22 mph    
Max Gust Speed 40 mph    
Visibility 10 miles    
Events Snow    
Averages and records for this station are not official NWS values.
T = Trace of Precipitation, MM = Missing Value Source: NWS Daily Summary

Daily Weather History Graph

Daily Weather History Graph

Search for Another Location

Airport or City:

Trip Planner

Search our weather history database for the weather conditions in past years. The results will help you decide how hot, cold, wet, or windy it might be!

Date:

Astronomy

Feb. 21, 2013 Rise Set
Actual Time 6:38 AM EST 5:31 PM EST
Civil Twilight 6:09 AM EST 5:59 PM EST
Nautical Twilight 5:37 AM EST 6:32 PM EST
Astronomical Twilight 5:04 AM EST 7:04 PM EST
Moon 1:40 PM EST (2/21) 3:43 AM EST (2/21)
Length of Visible Light 11h 50m
Length of Day
10h 53m
Waxing Gibbous, 83% of the Moon is Illuminated
Feb 21
Waxing Gibbous
Feb 25
Full
Mar 4
Last Quarter
Mar 11
New
Mar 19
First Quarter

Hourly Weather History & Observations

Time (EST) Temp. Windchill Dew Point Humidity Pressure Visibility Wind Dir Wind Speed Gust Speed Precip Events Conditions
12:53 AM 27.0 °F - 12.0 °F 53% 29.85 in 10.0 mi Calm Calm - N/A   Mostly Cloudy
1:53 AM 26.1 °F 19.4 °F 12.9 °F 58% 29.86 in 10.0 mi Variable 5.8 mph - N/A   Overcast
2:53 AM 26.1 °F 16.8 °F 12.0 °F 55% 29.86 in 10.0 mi WNW 9.2 mph 23.0 mph N/A   Overcast
3:53 AM 25.0 °F 13.1 °F 10.9 °F 55% 29.86 in 10.0 mi WNW 13.8 mph 25.3 mph N/A   Overcast
4:53 AM 25.0 °F 15.5 °F 10.0 °F 53% 29.88 in 10.0 mi WNW 9.2 mph 23.0 mph N/A   Overcast
5:53 AM 25.0 °F 13.1 °F 10.9 °F 55% 29.89 in 10.0 mi West 13.8 mph - N/A   Overcast
6:53 AM 24.1 °F 12.0 °F 10.9 °F 57% 29.90 in 10.0 mi WNW 13.8 mph - N/A   Overcast
7:53 AM 25.0 °F 10.6 °F 10.9 °F 55% 29.90 in 10.0 mi WNW 20.7 mph 28.8 mph N/A   Overcast
8:40 AM 24.8 °F 11.9 °F 15.8 °F 69% 29.88 in 8.0 mi WNW 16.1 mph 20.7 mph 0.00 in Snow Light Snow
8:53 AM 25.0 °F 10.6 °F 12.9 °F 60% 29.90 in 9.0 mi WNW 20.7 mph 33.4 mph 0.00 in   Overcast
9:29 AM 24.8 °F 10.3 °F 8.6 °F 50% 29.89 in 10.0 mi WNW 20.7 mph 36.8 mph 0.00 in   Partly Cloudy
9:53 AM 25.0 °F 13.6 °F 9.0 °F 51% 29.93 in 10.0 mi WNW 12.7 mph 23.0 mph 0.00 in   Mostly Cloudy
10:53 AM 26.1 °F 12.0 °F 10.9 °F 53% 29.92 in 10.0 mi WNW 20.7 mph 40.3 mph N/A   Clear
11:53 AM 27.0 °F 13.5 °F 10.9 °F 51% 29.93 in 10.0 mi WNW 19.6 mph 27.6 mph N/A   Partly Cloudy
12:53 PM 26.1 °F 12.0 °F 10.9 °F 53% 29.93 in 10.0 mi WNW 20.7 mph 28.8 mph N/A   Clear
1:53 PM 27.0 °F 12.8 °F 10.0 °F 49% 29.94 in 10.0 mi NW 21.9 mph 27.6 mph N/A   Clear
2:53 PM 27.0 °F 13.9 °F 10.0 °F 49% 29.96 in 10.0 mi NW 18.4 mph 28.8 mph N/A   Partly Cloudy
3:53 PM 27.0 °F 14.3 °F 10.9 °F 51% 29.99 in 10.0 mi NW 17.3 mph 23.0 mph N/A   Clear
4:53 PM 25.0 °F 11.3 °F 9.0 °F 51% 30.05 in 10.0 mi NW 18.4 mph 25.3 mph N/A   Clear
5:53 PM 23.0 °F 10.1 °F 9.0 °F 55% 30.09 in 10.0 mi NW 15.0 mph 28.8 mph N/A   Clear
6:53 PM 23.0 °F 10.6 °F 9.0 °F 55% 30.12 in 10.0 mi North 13.8 mph 21.9 mph N/A   Clear
7:53 PM 23.0 °F 11.1 °F 10.0 °F 58% 30.14 in 10.0 mi NW 12.7 mph 20.7 mph N/A   Clear
8:53 PM 24.1 °F 12.0 °F 12.0 °F 60% 30.20 in 10.0 mi WNW 13.8 mph - N/A   Clear
9:53 PM 24.1 °F 14.4 °F 12.9 °F 62% 30.22 in 10.0 mi NW 9.2 mph - N/A   Clear
10:53 PM 23.0 °F 11.7 °F 12.0 °F 63% 30.27 in 10.0 mi WNW 11.5 mph - N/A   Mostly Cloudy
11:53 PM 24.1 °F 12.0 °F 12.0 °F 60% 30.30 in 10.0 mi NNW 13.8 mph 19.6 mph N/A   Clear